Regional Weather Roundup
Issued by NWS

Home | Current Version | Previous Version | Text Only | Print | Product List | Glossary On
Versions: 1 2 3 4 5 6 7 8 9 10 11 12 13 14 15 16 17 18 19 20 21 22 23 24 25 26 27 28 29 30 31 32 33 34 35 36 37 38 39 40 41 42 43 44 45 46 47 48 49 50
000
ASUS43 KMPX 240910
RWRMN
WEATHER ROUNDUP FOR MINNESOTA
NATIONAL WEATHER SERVICE TWIN CITIES/CHANHASSEN MN
400 AM CDT THU JUL 24 2014


NOTE: "FAIR" INDICATES FEW OR NO CLOUDS BELOW 12,000 FEET WITH NO
SIGNIFICANT WEATHER AND/OR OBSTRUCTIONS TO VISIBILITY. N/A MEANS
CURRENT SKY AND/OR WEATHER CONDITIONS ARE NOT AVAILABLE.

MNZ060>063-068>070-241000-
   Twin Cities Metro

CITY           SKY/WX    TMP DP  RH WIND       PRES   REMARKS
TWIN CITIES    CLEAR     65  56  72 E3        30.16S
ST PAUL        CLEAR     63  58  83 E3        30.16F
CRYSTAL        CLEAR     60  56  86 CALM      30.15S
BLAINE         CLEAR     61  57  88 CALM      30.16S
LAKEVILLE      CLEAR     54  54 100 CALM      30.16F
EDEN PRAIRIE   CLEAR     63  61  93 CALM      30.15F
SOUTH ST PAUL  CLEAR     62  57  83 CALM      30.16S
LAKE ELMO      FAIR      55  55 100 CALM      30.18S
$$
MNZ001>005-007-008-013>017-022>024-027-028-241000-
   Northwest Minnesota

CITY           SKY/WX    TMP DP  RH WIND       PRES   REMARKS
BEMIDJI          N/A     51  51  98 CALM      30.17S FOG
HALLOCK        CLEAR     57  52  82 SE6       30.13F
ROSEAU         PTCLDY    52  46  82 CALM      30.16S
WARROAD        PTCLDY    52  46  82 CALM      30.16S
THIEF RVR FALL CLEAR     55  54  94 E3        30.15F
CROOKSTON      PTCLDY    55  54  94 CALM      30.15S
FOSSTON        PTCLDY    52  46  82 CALM      30.16S
DETROIT LAKES  PTCLDY    61  57  88 SE3       30.17S
MOORHEAD       PTCLDY    63  61  94 E3        30.14F
PARK RAPIDS    PTCLDY    54  52  93 CALM      30.17F
$$
MNZ006-009>011-018-025>026-241000-
   North Central Minnesota

CITY           SKY/WX    TMP DP  RH WIND       PRES   REMARKS
BAUDETTE       PTCLDY    56  52  86 CALM      30.17F
FLAG ISLAND    PTCLDY    64  54  68 CALM      30.14F
INTL FALLS     CLEAR     46  45  96 CALM      30.18R
WASKISH        PTCLDY    52  52 100 CALM      30.16F
BIG FORK       PTCLDY    48  46  93 CALM      30.19S
LONGVILLE      CLEAR     50  50 100 CALM      30.17F
GRAND RAPIDS   MOCLDY    55  52  88 CALM      30.19S
CRANE LAKE     CLEAR     43  43 100 CALM      30.20R
ORR            CLEAR     45  43  93 CALM      30.17R
COOK           CLEAR     45  45 100 CALM      30.20R
$$
MNZ012-019>021-037-241000-
   Northeast Minnesota

CITY           SKY/WX    TMP DP  RH WIND       PRES   REMARKS
DULUTH         MOCLDY    57  50  77 SE3       30.19R
HIBBING        MOCLDY    46  43  89 CALM      30.20R
EVELETH        PTCLDY    43  43 100 CALM      30.20S
DULUTH HARBOR  MOCLDY    55  54  94 CALM      30.19S
TWO HARBORS    CLEAR     46  43  87 CALM      30.17S
SILVER BAY     CLEAR     43  43 100 CALM      30.17S
GRAND MARAIS     N/A     49  46  90 CALM      30.16S
G MARAIS ARPRT CLEAR     43  39  87 CALM      30.19S
$$
MNZ029>031-032-039>041-046>048-054>057-064-241000-
   West Central Minnesota

CITY           SKY/WX    TMP DP  RH WIND       PRES   REMARKS
FERGUS FALLS   CLEAR     63  55  77 SE5       30.15F
WHEATON        CLEAR     55  55 100 SE6       30.16S
MORRIS         CLEAR     57  55  94 E6        30.15F
ALEXANDRIA     PTCLDY    59  55  87 CALM      30.18F
ELBOW LAKE     FAIR      63  58  84 E7        30.15F
WADENA         PTCLDY    52  52 100 CALM      30.17S
GLENWOOD       CLEAR     57  54  88 CALM      30.18S
APPLETON       CLEAR     57  55  94 CALM      30.15S
BENSON         CLEAR     57  55  94 CALM      30.16S
ORTONVILLE     CLEAR     61  55  82 SE3       30.15S
MADISON        CLEAR     61  57  88 CALM      30.16R
WILLMAR        FAIR      57  54  88 CALM      30.18S
$$
MNZ033>034-036-042>043-049>051-058-059-241000-
   Central Minnesota

CITY           SKY/WX    TMP DP  RH WIND       PRES   REMARKS
ST CLOUD       CLEAR     54  51  90 CALM      30.17S
SAUK CENTRE    FAIR      54  54  99 CALM      30.18S FOG
PAYNESVILLE    CLEAR     51  51 100 CALM      30.18S
AITKIN         HAZE      52  46  82 CALM      30.16F VSB 1
PINE RIVER     FOG       52  52 100 CALM      30.20F VSB 1/4
BRAINERD       CLEAR     50  50 100 CALM      30.18S
STAPLES        CLEAR     52  52 100 CALM      30.17F FOG
LONG PRAIRIE   FAIR      54  52  94 CALM      30.18S
LITTLE FALLS     N/A     52  52 100 CALM      30.18S FOG
LITCHFIELD     PTCLDY    61  59  94 CALM      30.18S
BUFFALO        CLEAR     58  54  86 CALM      30.18S
MAPLE LAKE     CLEAR     56  56  97 CALM      30.18S
$$
MNZ037-044-045-052-053-241000-
   East Central Minnesota

CITY           SKY/WX    TMP DP  RH WIND       PRES   REMARKS
PRINCETON      CLEAR     55  54  94 CALM      30.18R
MORA             N/A     52  52 100 CALM      30.19S FOG
CAMBRIDGE      CLEAR     57  48  72 CALM      30.15S
RUSH CITY      MOCLDY    54  53  95 CALM      30.18R
MOOSE LAKE     MOCLDY    55  52  88 CALM      30.17R
HINCKLEY       FAIR      57  55  94 CALM      30.18R
CLOQUET        CLOUDY    55  52  88 CALM      30.19R
MCGREGOR       PTCLDY    52  50  93 CALM      30.19R
$$
MNZ071>073-080-081-089-090-097-098-241000-
   Southwest Minnesota

CITY           SKY/WX    TMP DP  RH WIND       PRES   REMARKS
MONTEVIDEO     CLEAR     61  55  82 SW3       30.17R
GRANITE FALLS  CLEAR     57  54  89 S3        30.18R
CANBY          CLEAR     60  55  82 CALM      30.17S
MARSHALL       CLEAR     57  52  82 SW5       30.15S
REDWOOD FALLS  CLEAR     59  53  80 CALM      30.16S
OLIVIA         CLEAR     57  52  82 CALM      30.16S
PIPESTONE      CLEAR     61  54  77 SE5       30.16F
WINDOM         CLEAR     55  50  82 CALM      30.17F
WORTHINGTON    CLEAR     57  52  82 CALM      30.18F
JACKSON        MOCLDY    55  52  88 CALM      30.17F
TRACY          CLEAR     64  51  62 S5        30.17S
SLAYTON        CLEAR     60  54  79 CALM      30.18F
$$
MNZ065>067-074>077-082>085-091>093-241000-
   South Central Minnesota

CITY           SKY/WX    TMP DP  RH WIND       PRES   REMARKS
MANKATO        CLEAR     61  50  67 CALM      30.16F
NEW ULM        CLEAR     57  55  94 CALM      30.16F
ST JAMES       CLEAR     55  54  94 CALM      30.17F
FAIRMONT       CLEAR     57  50  77 CALM      30.16F
GLENCOE        CLEAR     58  53  83 CALM      30.16F
FARIBAULT      CLEAR     55  48  76 CALM      30.17S
OWATONNA       CLEAR     55  52  88 CALM      30.17S
WASECA         CLEAR     54  48  82 CALM      30.18S
ALBERT LEA     CLEAR     55  54  94 CALM      30.17S
$$
MNZ078>079-086>088-094>096-241000-
   Southeast Minnesota

CITY           SKY/WX    TMP DP  RH WIND       PRES   REMARKS
ROCHESTER      CLEAR     58  53  84 CALM      30.19S
RED WING       CLEAR     55  54  94 CALM      30.15F
STANTON        CLEAR     55  53  91 CALM      30.15F
DODGE CENTER   CLEAR     57  54  88 CALM      30.17F
WINONA         CLEAR     59  57  94 CALM      30.17S
AUSTIN         PTCLDY    57  55  94 CALM      30.17F
PRESTON        CLEAR     61  58  89 CALM      30.18S
$$
ABBREVIATIONS USED IN REMARKS
   TC - TEMPERATURES IN CELSIUS
  WCI - WIND CHILL INDEX
   HX - HEAT INDEX
  VSB - VISIBILITY
$$


USA.gov is the U.S. government's official web portal to all federal, state and local government web resources and services.